GW0019 Weather Reports


time (UTC)temp
F
wind
direction
speed
knots
gust
knots
rain 1hr
in
rain 24hr
in
rain mn
in
humidity
%
barometer
mb
20260906223007 92 63 1.7 3.5 0.00 0.00 0.00 77 1015.6
20260906222502 92 63 1.7 3.5 0.00 0.00 0.00 77 1015.3
20260906221959 92 63 1.7 3.5 0.00 0.00 0.00 77 1015.5
20260906221453 92 63 1.7 3.5 0.00 0.00 0.00 77 1015.3
20260906220948 92 63 1.7 3.5 0.00 0.00 0.00 77 1015.5
20260906220443 92 63 1.7 3.5 0.00 0.00 0.00 77 1015.5
20260906215943 92 63 1.7 3.5 0.00 0.00 0.00 77 1015.4
20260906215437 92 63 1.7 3.5 0.00 0.00 0.00 77 1015.5
20260906214935 92 63 1.7 3.5 0.00 0.00 0.00 77 1015.4
20260906214434 89 354 0.9 2.6 0.00 0.00 0.00 76 1015.4
20260906213934 89 354 0.9 2.6 0.00 0.00 0.00 76 1015.7
20260906213428 89 354 0.9 2.6 0.00 0.00 0.00 76 1015.3
20260906212926 89 354 0.9 2.6 0.00 0.00 0.00 76 1015.5
20260906212421 89 354 0.9 2.6 0.00 0.00 0.00 76 1015.7
20260906211916 89 354 0.9 2.6 0.00 0.00 0.00 76 1015.6
20260906211411 89 354 0.9 2.6 0.00 0.00 0.00 76 1015.6
20260906210910 89 354 0.9 2.6 0.00 0.00 0.00 76 1015.4
20260906210401 90 69 4.3 5.2 0.00 0.00 0.00 76 1015.3
20260906205855 89 48 0.0 5.2 0.00 0.00 0.00 76 1015.5
20260906205352 89 21 0.0 6.1 0.00 0.00 0.00 76 1015.5
20260906204847 89 63 0.0 1.7 0.00 0.00 0.00 76 1015.7
20260906204346 89 63 0.0 1.7 0.00 0.00 0.00 76 1015.3
20260906203845 89 98 0.0 2.6 0.00 0.00 0.00 76 1015.5
20260906203341 88 45 1.7 6.1 0.00 0.00 0.00 76 1015.6
20260906202838 89 12 2.6 4.3 0.00 0.00 0.00 76 1015.7
20260906202332 89 45 1.7 7.8 0.00 0.00 0.00 76 1015.7
20260906201832 89 9 6.1 9.6 0.00 0.00 0.00 76 1016.2
20260906201327 89 12 7.8 8.7 0.00 0.00 0.00 76 1016.1
20260906200822 89 349 2.6 8.7 0.00 0.00 0.00 76 1015.7
20260906200318 90 304 2.6 4.3 0.00 0.00 0.00 76 1016.1
20260906195813 89 25 4.3 5.2 0.00 0.00 0.00 76 1016.2
20260906195309 89 35 0.9 3.5 0.00 0.00 0.00 76 1016.4
20260906194805 88 28 4.3 6.1 0.00 0.00 0.00 76 1016.3
20260906194301 89 90 1.7 2.6 0.00 0.00 0.00 76 1016.3
20260906193801 88 61 1.7 3.5 0.00 0.00 0.00 76 1015.8
20260906193255 88 52 3.5 3.5 0.00 0.00 0.00 76 1016.1
20260906192751 88 29 2.6 7.8 0.00 0.00 0.00 76 1015.8
20260906192246 89 57 5.2 7.0 0.00 0.00 0.00 76 1016.1
20260906191745 90 145 2.6 11.3 0.00 0.00 0.00 76 1016.4
20260906191239 91 66 2.6 10.4 0.00 0.00 0.00 77 1016.5
20260906190734 94 47 2.6 5.2 0.00 0.00 0.00 77 1016.2
20260906190228 94 23 2.6 4.3 0.00 0.00 0.00 77 1016.3
20260906185727 95 5 2.6 4.3 0.00 0.00 0.00 77 1016.1
20260906185227 95 5 2.6 4.3 0.00 0.00 0.00 77 1016.4
20260906184721 95 5 2.6 4.3 0.00 0.00 0.00 77 1016.6
20260906184217 95 5 2.6 4.3 0.00 0.00 0.00 77 1016.4
20260906183713 95 5 2.6 4.3 0.00 0.00 0.00 77 1016.4
20260906183209 95 5 2.6 4.3 0.00 0.00 0.00 77 1016.5
20260906182709 95 19 0.0 3.5 0.00 0.00 0.00 77 1016.7
20260906182204 95 19 0.0 3.5 0.00 0.00 0.00 77 1016.5
20260906181659 98 93 4.3 6.1 0.00 0.00 0.00 77 1016.5
20260906181155 98 93 4.3 6.1 0.00 0.00 0.00 77 1016.5
20260906180650 98 7 0.9 3.5 0.00 0.00 0.00 77 1016.5
20260906180145 98 7 0.9 3.5 0.00 0.00 0.00 77 1016.5
20260906175643 96 16 3.5 3.5 0.00 0.00 0.00 77 1016.7
20260906175138 96 16 3.5 3.5 0.00 0.00 0.00 77 1017.0
20260906174636 96 16 3.5 3.5 0.00 0.00 0.00 77 1016.8
20260906174132 95 31 5.2 5.2 0.00 0.00 0.00 77 1016.9
20260906173627 95 31 5.2 5.2 0.00 0.00 0.00 77 1017.1
20260906173122 95 31 5.2 5.2 0.00 0.00 0.00 77 1017.4
20260906172621 95 2 2.6 4.3 0.00 0.00 0.00 77 1017.4
20260906172117 95 2 2.6 4.3 0.00 0.00 0.00 77 1017.4
20260906171616 94 66 3.5 5.2 0.00 0.00 0.00 77 1017.6
20260906171113 94 66 3.5 5.2 0.00 0.00 0.00 77 1017.7
20260906170609 94 66 3.5 5.2 0.00 0.00 0.00 77 1017.6
20260906170108 94 109 4.3 7.0 0.00 0.00 0.00 77 1017.6
20260906165604 93 90 1.7 3.5 0.00 0.00 0.00 77 1017.9
20260906165059 93 90 1.7 3.5 0.00 0.00 0.00 77 1018.0
20260906164558 93 90 1.7 3.5 0.00 0.00 0.00 77 1018.1
20260906164054 93 90 1.7 3.5 0.00 0.00 0.00 77 1018.0
20260906163549 93 94 2.6 2.6 0.00 0.00 0.00 77 1018.0
20260906163045 0 0.0 0.0 0.00 0.00 0.00 1018.1
20260906162542 0 0.0 0.0 0.00 0.00 0.00 1018.2
20260906162037 0 0.0 0.0 0.00 0.00 0.00 1018.1
20260906161532 0 0.0 0.0 0.00 0.00 0.00 1018.2
20260906161031 0 0.0 0.0 0.00 0.00 0.00 1018.2
20260906160531 0 0.0 0.0 0.00 0.00 0.00 1018.3
20260906160029 0 0.0 0.0 0.00 0.00 0.00 1018.3
20260906155526 0 0.0 0.0 0.00 0.00 0.00 1018.2
20260906155023 0 0.0 0.0 0.00 0.00 0.00 1018.2
20260906154518 0 0.0 0.0 0.00 0.00 0.00 1018.1
20260906154016 0 0.0 0.0 0.00 0.00 0.00 1018.3
20260906153516 0 0.0 0.0 0.00 0.00 0.00 1018.0
20260906153011 0 0.0 0.0 0.00 0.00 0.00 1018.1
20260906152505 0 0.0 0.0 0.00 0.00 0.00 1018.2
20260906152004 0 0.0 0.0 0.00 0.00 0.00 1018.1
20260906151500 0 0.0 0.0 0.00 0.00 0.00 1017.9
20260906150955 0 0.0 0.0 0.00 0.00 0.00 1018.1
20260906150450 0 0.0 0.0 0.00 0.00 0.00 1017.8
20260906145950 0 0.0 0.0 0.00 0.00 0.00 1018.0
20260906145449 0 0.0 0.0 0.00 0.00 0.00 1018.1
20260906144944 0 0.0 0.0 0.00 0.00 0.00 1018.0
20260906144439 0 0.0 0.0 0.00 0.00 0.00 1018.2
20260906143934 0 0.0 0.0 0.00 0.00 0.00 1018.1
20260906143430 0 0.0 0.0 0.00 0.00 0.00 1018.1
20260906142925 0 0.0 0.0 0.00 0.00 0.00 1018.1
20260906142425 0 0.0 0.0 0.00 0.00 0.00 1018.2
20260906141920 0 0.0 0.0 0.00 0.00 0.00 1018.1
20260906141414 0 0.0 0.0 0.00 0.00 0.00 1018.1
20260906140908 0 0.0 0.0 0.00 0.00 0.00 1018.3
20260906140403 0 0.0 0.0 0.00 0.00 0.00 1018.1
20260906135901 0 0.0 0.0 0.00 0.00 0.00 1018.0
20260906135400 0 0.0 0.0 0.00 0.00 0.00 1018.0
20260906134856 0 0.0 0.0 0.00 0.00 0.00 1017.9
20260906134351 0 0.0 0.0 0.00 0.00 0.00 1018.0
20260906133846 0 0.0 0.0 0.00 0.00 0.00 1018.0
20260906133342 0 0.0 0.0 0.00 0.00 0.00 1017.9
20260906132837 0 0.0 0.0 0.00 0.00 0.00 1017.9
20260906132332 0 0.0 0.0 0.00 0.00 0.00 1017.9
20260906131828 0 0.0 0.0 0.00 0.00 0.00 1018.0
20260906131323 0 0.0 0.0 0.00 0.00 0.00 1017.8
20260906130819 0 0.0 0.0 0.00 0.00 0.00 1018.0
20260906130313 0 0.0 0.0 0.00 0.00 0.00 1018.0
20260906125812 0 0.0 0.0 0.00 0.00 0.00 1017.8
20260906125309 0 0.0 0.0 0.00 0.00 0.00 1017.7
20260906124804 0 0.0 0.0 0.00 0.00 0.00 1017.7
20260906124300 0 0.0 0.0 0.00 0.00 0.00 1017.5
20260906123759 0 0.0 0.0 0.00 0.00 0.00 1017.6
20260906123254 0 0.0 0.0 0.00 0.00 0.00 1017.6
20260906122753 0 0.0 0.0 0.00 0.00 0.00 1017.5
20260906122249 0 0.0 0.0 0.00 0.00 0.00 1017.3
20260906121745 0 0.0 0.0 0.00 0.00 0.00 1017.4
20260906121242 0 0.0 0.0 0.00 0.00 0.00 1017.3
20260906120737 0 0.0 0.0 0.00 0.00 0.00 1017.4
20260906120234 0 0.0 0.0 0.00 0.00 0.00 1017.3
20260906115729 0 0.0 0.0 0.00 0.00 0.00 1017.4
20260906115224 0 0.0 0.0 0.00 0.00 0.00 1017.2
20260906114723 0 0.0 0.0 0.00 0.00 0.00 1017.1
20260906114218 0 0.0 0.0 0.00 0.00 0.00 1017.1
20260906113713 0 0.0 0.0 0.00 0.00 0.00 1017.0
20260906113212 0 0.0 0.0 0.00 0.00 0.00 1017.2
20260906112707 0 0.0 0.0 0.00 0.00 0.00 1016.8
20260906112204 0 0.0 0.0 0.00 0.00 0.00 1016.9
20260906111703 0 0.0 0.0 0.00 0.00 0.00 1016.9
20260906111158 0 0.0 0.0 0.00 0.00 0.00 1017.0
20260906110653 0 0.0 0.0 0.00 0.00 0.00 1016.7
20260906110148 0 0.0 0.0 0.00 0.00 0.00 1016.8
20260906105642 0 0.0 0.0 0.00 0.00 0.00 1016.7
20260906105138 0 0.0 0.0 0.00 0.00 0.00 1017.0
20260906104637 0 0.0 0.0 0.00 0.00 0.00 1016.5
20260906104131 0 0.0 0.0 0.00 0.00 0.00 1016.6
20260906103629 0 0.0 0.0 0.00 0.00 0.00 1016.7
20260906103125 0 0.0 0.0 0.00 0.00 0.00 1016.5
20260906102620 0 0.0 0.0 0.00 0.00 0.00 1016.6
20260906102114 0 0.0 0.0 0.00 0.00 0.00 1016.4
20260906101608 0 0.0 0.0 0.00 0.00 0.00 1016.2
20260906101103 0 0.0 0.0 0.00 0.00 0.00 1016.3
20260906100558 0 0.0 0.0 0.00 0.00 0.00 1016.1
20260906100053 0 0.0 0.0 0.00 0.00 0.00 1016.1
20260906095553 0 0.0 0.0 0.00 0.00 0.00 1016.3
20260906095049 0 0.0 0.0 0.00 0.00 0.00 1016.2
20260906094547 0 0.0 0.0 0.00 0.00 0.00 1016.1
20260906094043 0 0.0 0.0 0.00 0.00 0.00 1016.3
20260906093539 0 0.0 0.0 0.00 0.00 0.00 1016.2
20260906093034 0 0.0 0.0 0.00 0.00 0.00 1016.3
20260906092529 0 0.0 0.0 0.00 0.00 0.00 1016.0
20260906092024 0 0.0 0.0 0.00 0.00 0.00 1016.3
20260906091520 0 0.0 0.0 0.00 0.00 0.00 1016.1
20260906091016 0 0.0 0.0 0.00 0.00 0.00 1016.3
20260906090516 0 0.0 0.0 0.00 0.00 0.00 1016.4
20260906090011 0 0.0 0.0 0.00 0.00 0.00 1016.4
20260906085510 0 0.0 0.0 0.00 0.00 0.00 1016.1
20260906085009 0 0.0 0.0 0.00 0.00 0.00 1016.3
20260906084504 0 0.0 0.0 0.00 0.00 0.00 1016.1
20260906084003 0 0.0 0.0 0.00 0.00 0.00 1016.0
20260906083459 0 0.0 0.0 0.00 0.00 0.00 1015.8
20260906082958 0 0.0 0.0 0.00 0.00 0.00 1016.2
20260906082453 0 0.0 0.0 0.00 0.00 0.00 1016.2
20260906081949 0 0.0 0.0 0.00 0.00 0.00 1016.4
20260906081444 0 0.0 0.0 0.00 0.00 0.00 1016.0
20260906080940 0 0.0 0.0 0.00 0.00 0.00 1016.2
20260906080437 0 0.0 0.0 0.00 0.00 0.00 1016.2
20260906075937 0 0.0 0.0 0.00 0.00 0.00 1016.2
20260906075432 0 0.0 0.0 0.00 0.00 0.00 1016.3
20260906074927 0 0.0 0.0 0.00 0.00 0.00 1016.2
20260906074427 0 0.0 0.0 0.00 0.00 0.00 1016.4
20260906073926 0 0.0 0.0 0.00 0.00 0.00 1016.3
20260906073421 0 0.0 0.0 0.00 0.00 0.00 1016.4
20260906072917 0 0.0 0.0 0.00 0.00 0.00 1016.3
20260906072412 0 0.0 0.0 0.00 0.00 0.00 1016.6
20260906071908 0 0.0 0.0 0.00 0.00 0.00 1016.4
20260906071404 0 0.0 0.0 0.00 0.00 0.00 1016.6
20260906070859 0 0.0 0.0 0.00 0.00 0.00 1016.5
20260906070355 0 0.0 0.0 0.00 0.00 0.00 1016.5
20260906065850 0 0.0 0.0 0.00 0.00 0.00 1016.7
20260906065344 0 0.0 0.0 0.00 0.00 0.00 1016.6
20260906064840 0 0.0 0.0 0.00 0.00 0.00 1016.5
20260906064337 0 0.0 0.0 0.00 0.00 0.00 1016.5
20260906063831 0 0.0 0.0 0.00 0.00 0.00 1016.4
20260906063326 0 0.0 0.0 0.00 0.00 0.00 1016.5
20260906062822 0 0.0 0.0 0.00 0.00 0.00 1016.3
20260906062320 0 0.0 0.0 0.00 0.00 0.00 1016.6
20260906061816 0 0.0 0.0 0.00 0.00 0.00 1016.4
20260906061312 0 0.0 0.0 0.00 0.00 0.00 1016.6
20260906060807 0 0.0 0.0 0.00 0.00 0.00 1016.7
20260906060305 0 0.0 0.0 0.00 0.00 0.00 1016.5
20260906055800 0 0.0 0.0 0.00 0.00 0.00 1016.3
20260906055255 0 0.0 0.0 0.00 0.00 0.00 1016.5
20260906054750 0 0.0 0.0 0.00 0.00 0.00 1016.8
20260906054246 0 0.0 0.0 0.00 0.00 0.00 1016.8
20260906053743 0 0.0 0.0 0.00 0.00 0.00 1016.4
20260906053238 0 0.0 0.0 0.00 0.00 0.00 1016.6
20260906052733 0 0.0 0.0 0.00 0.00 0.00 1016.6
20260906052229 0 0.0 0.0 0.00 0.00 0.00 1016.6
20260906051726 0 0.0 0.0 0.00 0.00 0.00 1016.6
20260906051225 0 0.0 0.0 0.00 0.00 0.00 1016.4
20260906050721 0 0.0 0.0 0.00 0.00 0.00 1016.7
20260906050216 0 0.0 0.0 0.00 0.00 0.00 1016.5
20260906045714 0 0.0 0.0 0.00 0.00 0.00 1016.5
20260906045209 0 0.0 0.0 0.00 0.00 0.00 1016.6
20260906044706 0 0.0 0.0 0.00 0.00 0.00 1016.2
20260906044200 0 0.0 0.0 0.00 0.00 0.00 1016.5
20260906043656 0 0.0 0.0 0.00 0.00 0.00 1016.1
20260906043152 0 0.0 0.0 0.00 0.00 0.00 1016.2
20260906042651 0 0.0 0.0 0.00 0.00 0.00 1016.2
20260906042145 0 0.0 0.0 0.00 0.00 0.00 1016.4
20260906041641 0 0.0 0.0 0.00 0.00 0.00 1016.5
20260906041136 0 0.0 0.0 0.00 0.00 0.00 1016.4
20260906040631 0 0.0 0.0 0.00 0.00 0.00 1016.3
20260906040127 0 0.0 0.0 0.00 0.00 0.00 1016.3
20260906035622 0 0.0 0.0 0.00 0.00 0.00 1016.3
20260906035118 0 0.0 0.0 0.00 0.00 0.00 1016.4
20260906034618 0 0.0 0.0 0.00 0.00 0.00 1016.6
20260906034112 0 0.0 0.0 0.00 0.00 0.00 1016.4
20260906033602 0 0.0 0.0 0.00 0.00 0.00 1016.4
20260906033057 0 0.0 0.0 0.00 0.00 0.00 1016.4
20260906032554 0 0.0 0.0 0.00 0.00 0.00 1016.4
20260906032054 0 0.0 0.0 0.00 0.00 0.00 1016.3
20260906031549 0 0.0 0.0 0.00 0.00 0.00 1016.4
20260906031044 0 0.0 0.0 0.00 0.00 0.00 1016.3
20260906030544 0 0.0 0.0 0.00 0.00 0.00 1016.3
20260906030043 0 0.0 0.0 0.00 0.00 0.00 1016.6
20260906025538 0 0.0 0.0 0.00 0.00 0.00 1016.2
20260906025036 0 0.0 0.0 0.00 0.00 0.00 1016.4
20260906024532 0 0.0 0.0 0.00 0.00 0.00 1016.3
20260906024031 0 0.0 0.0 0.00 0.00 0.00 1016.2
20260906023528 0 0.0 0.0 0.00 0.00 0.00 1016.1
20260906023023 0 0.0 0.0 0.00 0.00 0.00 1015.8
20260906022518 0 0.0 0.0 0.00 0.00 0.00 1016.0
20260906022013 0 0.0 0.0 0.00 0.00 0.00 1015.5
20260906021508 0 0.0 0.0 0.00 0.00 0.00 1015.8
20260906021002 0 0.0 0.0 0.00 0.00 0.00 1016.1
20260906020456 0 0.0 0.0 0.00 0.00 0.00 1015.6
20260906015955 0 0.0 0.0 0.00 0.00 0.00 1015.6
20260906015450 0 0.0 0.0 0.00 0.00 0.00 1015.5
20260906014950 0 0.0 0.0 0.00 0.00 0.00 1015.4
20260906014449 0 0.0 0.0 0.00 0.00 0.00 1015.6
20260906013946 0 0.0 0.0 0.00 0.00 0.00 1015.2
20260906013441 0 0.0 0.0 0.00 0.00 0.00 1015.4
20260906012937 0 0.0 0.0 0.00 0.00 0.00 1015.0
20260906012431 0 0.0 0.0 0.00 0.00 0.00 1015.2
20260906011930 0 0.0 0.0 0.00 0.00 0.00 1015.1
20260906011426 0 0.0 0.0 0.00 0.00 0.00 1015.3
20260906010921 0 0.0 0.0 0.00 0.00 0.00 1015.0
20260906010417 0 0.0 0.0 0.00 0.00 0.00 1014.8
20260906005913 0 0.0 0.0 0.00 0.00 0.00 1014.8
20260906005412 0 0.0 0.0 0.00 0.00 0.00 1014.8
20260906004910 0 0.0 0.0 0.00 0.00 0.00 1014.8
20260906004405 0 0.0 0.0 0.00 0.00 0.00 1014.7
20260906003900 0 0.0 0.0 0.00 0.00 0.00 1014.5
20260906003356 0 0.0 0.0 0.00 0.00 0.00 1014.7
20260906002851 0 0.0 0.0 0.00 0.00 0.00 1014.9
20260906002350 0 0.0 0.0 0.00 0.00 0.00 1014.7
20260906001846 0 0.0 0.0 0.00 0.00 0.00 1014.7
20260906001342 0 0.0 0.0 0.00 0.00 0.00 1014.7
20260906000836 0 0.0 0.0 0.00 0.00 0.00 1014.8
20260906000333 0 0.0 0.0 0.00 0.00 0.00 1014.7
20260905235831 0 0.0 0.0 0.00 0.00 0.00 1014.7
20260905235326 0 0.0 0.0 0.00 0.00 0.00 1014.6
20260905234821 0 0.0 0.0 0.00 0.00 0.00 1014.5
20260905234316 0 0.0 0.0 0.00 0.00 0.00 1014.8
20260905233811 0 0.0 0.0 0.00 0.00 0.00 1014.9
20260905233306 0 0.0 0.0 0.00 0.00 0.00 1014.9
20260905232805 0 0.0 0.0 0.00 0.00 0.00 1014.9
20260905232305 0 0.0 0.0 0.00 0.00 0.00 1014.8
20260905231757 0 0.0 0.0 0.00 0.00 0.00 1014.8
20260905231252 0 0.0 0.0 0.00 0.00 0.00 1014.7
20260905230748 0 0.0 0.0 0.00 0.00 0.00 1014.7
20260905230246 0 0.0 0.0 0.00 0.00 0.00 1014.8
20260905225745 0 0.0 0.0 0.00 0.00 0.00 1014.5
20260905225241 0 0.0 0.0 0.00 0.00 0.00 1014.4
20260905224740 0 0.0 0.0 0.00 0.00 0.00 1014.4
20260905224236 0 0.0 0.0 0.00 0.00 0.00 1014.4
20260905223731 0 0.0 0.0 0.00 0.00 0.00 1014.4
20260905223228 0 0.0 0.0 0.00 0.00 0.00 1014.6